Weather History for Minot, ND

Change the Weather History Date:

Sunday, February 17, 2013

  Actual Average Record
Temperature  
Mean Temperature 34 °F 18 °F  
Max Temperature 40 °F 26 °F 50 °F (2002)
Min Temperature 28 °F 9 °F -31 °F (1936)
Degree Days  
Heating Degree Days 31 48  
Month to date heating degree days 774 843  
Since 1 July heating degree days 6175 6075  
Moisture  
Dew Point 27 °F    
Average Humidity 78    
Maximum Humidity 92    
Minimum Humidity 64    
Precipitation  
Precipitation 0.00 in 0.01 in 0.13 in (1964)
Month to date precipitation 0.35 0.22  
Year to date precipitation 0.46 0.73  
Sea Level Pressure  
Sea Level Pressure 29.54 in    
Wind  
Wind Speed 12 mph (WNW)    
Max Wind Speed 23 mph    
Max Gust Speed 29 mph    
Visibility 6 miles    
Events Fog , Snow    
T = Trace of Precipitation, MM = Missing Value Source: NWS Daily Summary

Daily Weather History Graph

Daily Weather History Graph

Search for Another Location

Airport:

Trip Planner

Search our weather history database for the weather conditions in past years. The results will help you decide how hot, cold, wet, or windy it might be!

Date:

Astronomy

Feb. 17, 2013 Rise Set
Actual Time 7:48 AM CST 6:10 PM CST
Civil Twilight 7:16 AM CST 6:42 PM CST
Nautical Twilight 6:39 AM CST 7:19 PM CST
Astronomical Twilight 6:03 AM CST 7:55 PM CST
Moon 11:05 AM CST (2/17) 1:44 AM CST (2/17)
Length of Visible Light 11h 26m
Length of Day
10h 22m
Waxing Crescent, 49% of the Moon is Illuminated
Feb 17
Waxing Crescent
Feb 17
First Quarter
Feb 25
Full
Mar 4
Last Quarter
Mar 11
New

Hourly Weather History & Observations

Time (CST) Temp. Windchill Dew Point Humidity Pressure Visibility Wind Dir Wind Speed Gust Speed Precip Events Conditions
12:54 AM 28.9 °F 21.9 °F 26.1 °F 89% 29.71 in 10.0 mi SSE 6.9 mph - N/A   Clear
1:54 AM 32.0 °F 26.4 °F 28.0 °F 85% 29.68 in 9.0 mi South 5.8 mph - N/A   Overcast
2:54 AM 35.1 °F 26.9 °F 28.0 °F 76% 29.63 in 10.0 mi SSW 11.5 mph 20.7 mph N/A   Overcast
3:54 AM 35.1 °F 25.2 °F 28.0 °F 76% 29.59 in 10.0 mi SSW 16.1 mph 20.7 mph N/A   Partly Cloudy
4:54 AM 35.1 °F 25.2 °F 28.0 °F 76% 29.56 in 10.0 mi SSW 16.1 mph - N/A   Overcast
5:54 AM 34.0 °F 25.5 °F 27.0 °F 75% 29.55 in 10.0 mi SSW 11.5 mph - N/A   Mostly Cloudy
6:54 AM 34.0 °F 24.2 °F 27.0 °F 75% 29.53 in 10.0 mi SSW 15.0 mph - N/A   Clear
7:54 AM 34.0 °F 23.4 °F 27.0 °F 75% 29.52 in 10.0 mi SSW 17.3 mph - N/A   Clear
8:54 AM 34.0 °F 24.2 °F 27.0 °F 75% 29.51 in 10.0 mi SW 15.0 mph - N/A   Clear
9:54 AM 35.1 °F 26.4 °F 28.0 °F 76% 29.50 in 10.0 mi SW 12.7 mph - N/A   Clear
10:54 AM 39.0 °F 31.4 °F 28.9 °F 67% 29.49 in 10.0 mi SW 12.7 mph - N/A   Mostly Cloudy
11:54 AM 37.9 °F 31.5 °F 28.9 °F 70% 29.48 in 10.0 mi WSW 9.2 mph - N/A   Partly Cloudy
12:54 PM 39.0 °F 30.6 °F 28.9 °F 67% 29.47 in 10.0 mi WSW 15.0 mph - N/A   Mostly Cloudy
1:54 PM 39.0 °F 31.8 °F 30.0 °F 70% 29.46 in 10.0 mi SW 11.5 mph - N/A   Mostly Cloudy
2:54 PM 37.9 °F 30.9 °F 30.0 °F 73% 29.47 in 10.0 mi West 10.4 mph - N/A   Mostly Cloudy
3:52 PM 37.4 °F 28.5 °F 30.2 °F 75% 29.43 in 10.0 mi West 15.0 mph - N/A   Overcast
3:54 PM 37.0 °F 28.5 °F 30.0 °F 76% 29.48 in 10.0 mi West 13.8 mph - N/A   Overcast
4:54 PM 36.0 °F 28.0 °F 30.9 °F 82% 29.48 in 10.0 mi West 11.5 mph 21.9 mph N/A   Overcast
5:07 PM 35.6 °F 26.6 °F 30.2 °F 81% 29.43 in 10.0 mi West 13.8 mph - N/A   Overcast
5:16 PM 35.6 °F 24.8 °F 30.2 °F 81% 29.44 in 10.0 mi West 19.6 mph - N/A   Overcast
5:24 PM 35.6 °F 26.2 °F 30.2 °F 81% 29.43 in 10.0 mi West 15.0 mph - N/A   Overcast
5:54 PM 34.0 °F 24.6 °F 30.0 °F 85% 29.49 in 10.0 mi WNW 13.8 mph - N/A   Mostly Cloudy
6:14 PM 33.8 °F 23.9 °F 30.2 °F 87% 29.44 in 7.0 mi WNW 15.0 mph - 0.00 in Snow Light Snow
6:27 PM 33.8 °F 24.3 °F 30.2 °F 87% 29.46 in 4.0 mi WNW 13.8 mph - 0.00 in Snow Light Snow
6:54 PM 32.0 °F 22.1 °F 30.0 °F 92% 29.52 in 1.5 mi WNW 13.8 mph - 0.00 in Snow Light Snow
7:22 PM 30.2 °F 19.3 °F 30.2 °F 100% 29.48 in 0.8 mi WNW 15.0 mph - 0.01 in Snow Light Snow
7:54 PM 32.0 °F 20.8 °F 30.0 °F 92% 29.55 in 0.8 mi NW 17.3 mph - 0.03 in Snow Light Snow
8:03 PM 30.2 °F 18.5 °F 30.2 °F 100% 29.49 in 1.2 mi NNW 17.3 mph - 0.00 in Snow Light Snow
8:10 PM 30.2 °F 17.1 °F 28.4 °F 93% 29.50 in 1.2 mi NNW 21.9 mph 26.5 mph 0.00 in Snow Light Snow
8:21 PM 28.4 °F 17.0 °F 28.4 °F 100% 29.51 in 1.0 mi NNW 15.0 mph - N/A Snow Light Snow
8:50 PM 28.4 °F 14.7 °F 26.6 °F 93% 29.53 in 0.8 mi NNW 21.9 mph 29.9 mph 0.00 in Snow Light Snow
8:54 PM 28.9 °F 15.1 °F 27.0 °F 92% 29.59 in 0.8 mi NNW 23.0 mph 29.9 mph 0.00 in Snow Light Snow
9:02 PM 28.4 °F 14.7 °F 26.6 °F 93% 29.53 in 1.0 mi NW 21.9 mph 28.8 mph 0.00 in Snow Light Snow
9:11 PM 28.4 °F 15.8 °F 26.6 °F 93% 29.54 in 0.8 mi NNW 18.4 mph 27.6 mph 0.00 in Snow Light Snow
9:18 PM 26.6 °F 11.4 °F 26.6 °F 100% 29.55 in 0.8 mi NNW 25.3 mph 31.1 mph 0.00 in Snow Light Snow
9:35 PM 26.6 °F 11.7 °F 24.8 °F 93% 29.56 in 0.8 mi NNW 24.2 mph 29.9 mph 0.01 in Snow Light Snow
9:54 PM 21.9 °F 4.5 °F 19.9 °F 92% 29.65 in 0.5 mi NNW 27.6 mph 36.8 mph 0.01 in Fog , Snow Snow
10:20 PM 21.2 °F 3.3 °F 19.4 °F 93% 29.60 in 0.5 mi NNW 28.8 mph 34.5 mph 0.00 in Fog Light Freezing Fog
10:50 PM 19.4 °F 1.8 °F 17.6 °F 93% 29.63 in 1.0 mi NNW 25.3 mph 32.2 mph 0.01 in   Mist
10:54 PM 19.9 °F 2.8 °F 17.1 °F 89% 29.69 in 1.0 mi NNW 24.2 mph 32.2 mph 0.01 in   Mist
11:00 PM 19.4 °F 0.8 °F 17.6 °F 93% 29.63 in 1.2 mi NNW 28.8 mph 34.5 mph N/A   Overcast
11:37 PM 19.4 °F 2.1 °F 15.8 °F 86% 29.66 in 1.2 mi NNW 24.2 mph 32.2 mph N/A   Overcast
11:54 PM 18.0 °F -0.2 °F 15.1 °F 88% 29.75 in 1.8 mi NNW 25.3 mph 32.2 mph N/A   Overcast